Voltar ao catálogo

FENGYUN 1C DEB

AtivoPO
NORAD 32234·DEBRIS·🇨🇳 China

Lançado May 10, 1999 de Taiyuan Satellite Launch Center

Loading…

Próximas Passagens (próximas 24 horas)

TLE

AtualizadoSource: Space-Track

Época: Sep 14, 2026, 00:18 UTC

1 32234U 99025CWG 26257.01297628  .00000971  00000-0  69770-3 0  9995
2 32234  98.5147  90.9361 0133430 292.4108  66.2966 13.94986378970467

Acompanhe FENGYUN 1C DEB em tempo real com AllMySat

Download on the App Store